Location: Kalberh�ni
(46.4610°N, 7.2453°E)
Time: 07:12:06
(UTC+00:00)

deb Kosmos-2227 - Pass Details

Date: 11 August 2022
Orbit: 774 x 865 km, 70.9° (Epoch: 26 September)

Event Time Altitude Azimuth Distance (km) Brightness Sun altitude
Rises 23:03:03 0° 337° (NNW) 3,329 ? -28.0°
Reaches altitude 10° 23:05:38 10° 346° (NNW) 2,409 ? -28.1°
Maximum altitude 23:10:46 39° 54° (NE) 1,234 ? -28.2°
Enters shadow 23:11:52 35° 81° (E) 1,315 ? -28.3°
